Probability
0 6 23 16 16 19 19 19 19 19 19 19 26 23 26 26 23 26 26 26 26 23 26 26 26 26 23 23 19 13 13 13 19 16 19 19 19 19 16 16 13 3 19
0 6 16 16 16 19 19 19 19 19 19 19 19 23 29 29 23 23 23 23 23 23 19 26 23 23 19 16 13 10 10 10 10 3 0 6 16 19 19 16 19 10 19
3 10 13 19 19 19 19 19 19 19 19 19 23 19 23 26 26 23 23 19 19 16 19 23 19 16 16 13 16 10 6 6 3 0 0 0 3 16 13 16 16 19 13
6 13 16 16 19 19 19 19 16 19 19 19 19 16 16 16 26 16 16 16 16 16 13 16 16 13 13 19 19 10 10 6 0 0 0 0 0 19 16 16 16 16 16
6 13 16 16 19 16 16 19 13 16 16 16 16 16 16 16 19 16 16 16 19 13 19 13 13 13 16 16 10 10 6 6 0 0 0 0 0 13 16 13 10 13 13
10 13 16 16 19 16 16 16 16 13 19 13 16 16 16 16 16 19 13 13 16 13 13 10 6 6 13 13 6 3 3 3 0 0 0 0 0 3 13 10 10 10 10
13 13 16 16 19 16 16 16 16 13 13 19 16 16 16 16 13 10 16 13 13 16 16 13 6 6 6 3 3 0 3 0 0 0 0 0 0 3 0 0 6 6 6
10 13 13 13 16 16 16 16 16 13 13 13 19 19 13 10 10 10 13 13 10 16 16 13 6 3 3 0 0 0 0 0 0 0 0 0 3 3 0 0 0 0 0
10 10 10 13 13 16 16 16 16 16 16 16 13 10 10 10 10 10 10 13 13 10 13 13 6 3 3 0 0 0 0 0 0 0 0 0 3 3 0 0 0 0 3
6 6 6 6 6 6 6 16 13 10 13 13 6 6 3 3 6 10 6 13 13 10 6 10 6 3 0 0 0 0 0 0 0 0 0 0 6 3 3 0 0 0 0
3 6 6 6 6 6 3 3 6 3 3 3 0 0 0 0 0 0 0 3 3 3 6 6 6 3 0 0 0 0 0 0 0 0 0 0 6 3 3 3 0 0 0
3 3 3 3 6 3 3 0 0 0 0 0 0 0 0 0 0 0 0 0 0 3 3 3 3 0 0 0 0 0 0 0 0 0 0 0 3 0 0 0 0 0 0
3 3 3 0 0 3 0 0 0 0 0 0 0 0 0 0 0 0 0 0 0 0 0 0 0 0 0 0 0 0 0 0 0 0 0 0 3 3 0 3 0 0 0
0 3 0 0 0 0 0 0 0 0 0 0 0 0 0 0 0 0 0 0 0 0 0 0 0 0 0 0 0 0 0 0 0 0 0 0 0 3 0 3 0 0 0
0 0 0 0 0 0 0 0 0 0 0 0 0 0 0 0 0 0 0 0 0 0 0 0 0 0 0 0 0 0 0 0 0 0 0 0 0 3 3 3 0 0 0
0 0 0 0 0 0 0 0 0 0 0 0 0 0 0 0 0 0 0 0 0 0 0 0 0 0 0 0 0 0 0 0 0 0 0 0 0 0 0 3 0 0 0
0 0 0 0 0 0 0 0 0 0 0 0 0 0 0 0 0 0 0 0 0 0 0 0 0 0 0 0 0 0 0 0 0 0 0 0 0 0 0 0 0 0 0
0 0 0 0 0 0 0 0 0 0 0 0 0 0 0 0 0 0 0 0 0 0 0 0 0 0 0 0 0 0 0 0 0 0 0 0 0 0 0 0 0 3 0
0 0 0 0 0 0 0 0 0 0 0 0 0 0 0 0 0 0 0 0 0 0 0 0 0 0 0 0 0 0 0 0 0 0 0 0 0 0 0 0 0 0 0
0 0 0 0 0 0 0 0 0 0 0 0 0 0 0 0 0 0 0 0 0 0 0 0 0 0 0 0 0 0 0 0 0 0 0 0 0 0 0 0 0 0 0
0 0 0 0 0 0 0 0 0 0 0 0 0 0 0 0 0 0 0 0 0 0 0 0 0 0 0 0 0 0 0 0 0 0 0 0 0 0 0 0 0 0 0
0 0 0 0 0 0 0 0 0 0 0 0 0 0 0 0 0 0 0 0 0 0 0 0 0 0 0 0 0 0 0 0 0 0 0 0 0 0 0 0 0 0 0
0 0 0 0 0 0 0 0 0 0 0 0 0 0 0 0 0 0 0 0 0 0 0 0 0 0 0 0 0 0 0 0 0 0 0 0 0 0 0 0 0 0 0
0 0 0 0 0 0 0 0 0 0 0 0 0 0 0 0 0 0 0 0 0 0 0 0 0 0 0 0 0 0 0 0 0 0 0 0 0 0 0 0 0 0 0
0 0 0 0 0 0 0 0 0 0 0 0 0 0 0 0 0 0 0 0 0 0 0 0 0 0 0 0 0 0 0 0 0 0 0 0 0 0 0 0 0 0 0
0 0 0 0 0 0 0 0 0 0 0 0 0 0 0 0 0 0 0 0 0 0 0 0 0 0 0 0 0 0 0 0 0 0 0 0 0 0 0 0 0 0 0
Height
5830 5831 5832 5832 5833 5834 5835 5835 5836 5837 5838 5839 5840 5841 5842 5842 5843 5844 5844 5845 5845 5846 5847 5847 5848 5848 5849 5849 5850 5851 5851 5852 5852 5852 5853 5854 5854 5854 5855 5855 5855 5855 5856
5828 5829 5829 5830 5831 5832 5833 5834 5834 5835 5836 5837 5838 5839 5840 5840 5841 5842 5843 5843 5844 5845 5845 5846 5847 5847 5848 5848 5849 5849 5850 5851 5851 5851 5852 5853 5853 5854 5854 5854 5855 5855 5855
5825 5826 5827 5828 5828 5829 5830 5831 5832 5833 5834 5835 5836 5836 5837 5838 5839 5840 5841 5842 5843 5843 5844 5845 5845 5846 5846 5847 5848 5848 5849 5849 5850 5850 5851 5852 5852 5853 5853 5853 5854 5854 5854
5822 5823 5824 5825 5826 5827 5828 5829 5830 5831 5832 5833 5834 5834 5835 5836 5837 5838 5839 5840 5841 5841 5842 5843 5844 5844 5845 5845 5846 5846 5847 5848 5848 5849 5850 5850 5851 5851 5852 5852 5853 5853 5853
5818 5819 5820 5821 5822 5824 5825 5826 5827 5828 5829 5830 5831 5832 5833 5834 5835 5835 5836 5837 5838 5839 5840 5841 5841 5842 5843 5843 5844 5845 5845 5846 5846 5847 5848 5849 5849 5850 5850 5851 5851 5852 5852
5814 5815 5816 5817 5819 5820 5821 5822 5823 5825 5826 5827 5828 5829 5830 5831 5832 5833 5833 5834 5835 5836 5837 5838 5839 5840 5840 5841 5842 5842 5843 5844 5844 5845 5846 5846 5847 5848 5848 5849 5849 5850 5851
5810 5811 5812 5813 5815 5816 5817 5819 5820 5821 5822 5823 5825 5826 5827 5827 5829 5829 5830 5831 5832 5833 5834 5835 5836 5837 5837 5838 5839 5840 5840 5841 5841 5842 5843 5844 5845 5845 5846 5847 5847 5848 5848
5805 5807 5808 5809 5810 5812 5813 5815 5816 5817 5818 5819 5821 5822 5823 5824 5825 5826 5827 5828 5829 5829 5830 5831 5832 5833 5834 5834 5835 5836 5837 5838 5838 5839 5840 5841 5841 5842 5843 5844 5845 5845 5846
5801 5802 5803 5805 5806 5807 5808 5810 5812 5813 5814 5815 5816 5817 5818 5820 5821 5822 5823 5824 5825 5825 5826 5827 5828 5829 5830 5831 5831 5832 5833 5834 5835 5835 5836 5837 5838 5839 5840 5840 5841 5842 5842
5795 5797 5798 5799 5801 5802 5804 5805 5807 5808 5809 5810 5811 5813 5814 5815 5816 5818 5819 5819 5820 5821 5822 5823 5824 5825 5826 5826 5827 5828 5828 5829 5830 5831 5832 5833 5833 5834 5835 5836 5837 5838 5839
5790 5791 5792 5794 5795 5797 5798 5800 5801 5803 5804 5805 5806 5808 5809 5810 5811 5812 5814 5815 5815 5816 5817 5818 5819 5820 5821 5822 5822 5823 5824 5824 5825 5826 5827 5828 5829 5830 5831 5832 5833 5834 5835
5783 5785 5786 5788 5789 5791 5792 5794 5795 5797 5798 5799 5801 5802 5803 5804 5806 5807 5808 5809 5810 5811 5811 5812 5813 5814 5815 5816 5817 5818 5818 5819 5820 5821 5822 5823 5823 5824 5826 5827 5828 5829 5830
5776 5778 5780 5781 5782 5784 5786 5787 5789 5790 5792 5793 5794 5796 5797 5798 5799 5801 5802 5803 5804 5805 5806 5806 5807 5808 5809 5810 5811 5812 5813 5813 5814 5815 5816 5817 5818 5819 5820 5821 5822 5823 5824
5769 5770 5772 5773 5775 5776 5778 5780 5781 5783 5784 5786 5787 5788 5790 5791 5793 5794 5795 5796 5797 5798 5799 5800 5801 5801 5802 5803 5804 5805 5806 5807 5808 5809 5809 5810 5811 5812 5814 5815 5816 5817 5818
5760 5762 5764 5765 5767 5768 5770 5772 5773 5775 5776 5778 5779 5781 5782 5783 5785 5786 5787 5789 5790 5791 5792 5793 5793 5794 5795 5796 5797 5798 5799 5800 5801 5802 5803 5804 5804 5805 5807 5808 5809 5810 5812
5751 5753 5755 5756 5758 5760 5761 5763 5764 5766 5767 5769 5770 5772 5773 5775 5776 5778 5779 5781 5782 5783 5784 5785 5786 5787 5787 5788 5789 5790 5791 5792 5793 5794 5796 5797 5797 5798 5799 5801 5802 5803 5805
5742 5743 5745 5747 5749 5750 5752 5753 5755 5756 5758 5759 5761 5762 5764 5766 5767 5769 5770 5772 5773 5774 5775 5776 5777 5778 5779 5780 5782 5783 5783 5784 5785 5786 5788 5789 5790 5791 5792 5793 5794 5796 5797
5731 5733 5735 5737 5739 5740 5742 5744 5745 5746 5748 5749 5751 5752 5754 5755 5757 5759 5760 5762 5763 5765 5766 5767 5768 5770 5771 5772 5773 5774 5775 5776 5777 5778 5779 5780 5781 5782 5784 5785 5786 5787 5789
5721 5723 5724 5726 5728 5730 5731 5733 5734 5736 5737 5738 5740 5741 5743 5745 5747 5749 5750 5752 5753 5755 5756 5758 5759 5760 5761 5762 5763 5764 5765 5766 5767 5768 5770 5771 5772 5773 5775 5776 5777 5779 5780
5710 5711 5713 5715 5717 5718 5720 5722 5723 5725 5726 5727 5729 5730 5732 5734 5736 5737 5739 5741 5742 5744 5745 5747 5748 5749 5750 5751 5752 5754 5755 5756 5757 5758 5760 5761 5762 5764 5765 5767 5768 5769 5770
5697 5699 5701 5703 5705 5707 5708 5710 5712 5713 5715 5716 5718 5719 5721 5723 5724 5726 5728 5729 5731 5733 5734 5735 5737 5738 5739 5740 5741 5743 5744 5745 5746 5747 5749 5750 5752 5753 5755 5757 5758 5759 5761
5685 5687 5689 5691 5693 5694 5696 5698 5700 5701 5702 5704 5705 5707 5709 5711 5712 5714 5716 5717 5719 5720 5722 5723 5725 5726 5727 5728 5729 5730 5732 5734 5734 5736 5738 5739 5740 5742 5743 5745 5747 5748 5750
5672 5674 5676 5678 5680 5682 5684 5685 5687 5689 5690 5691 5693 5695 5696 5698 5699 5701 5703 5704 5706 5707 5709 5710 5712 5714 5715 5716 5716 5718 5719 5721 5722 5724 5725 5727 5728 5730 5731 5732 5734 5736 5738
5659 5661 5663 5665 5667 5669 5670 5672 5674 5676 5678 5680 5681 5682 5683 5685 5687 5688 5689 5691 5692 5694 5696 5697 5699 5700 5702 5703 5703 5704 5706 5707 5708 5711 5713 5714 5715 5717 5718 5719 5721 5723 5725
5645 5647 5649 5651 5653 5655 5657 5659 5661 5663 5665 5667 5668 5669 5670 5672 5673 5675 5676 5677 5679 5681 5682 5684 5685 5687 5688 5689 5690 5691 5692 5693 5694 5696 5699 5701 5702 5703 5704 5705 5707 5709 5711
5631 5633 5635 5637 5639 5641 5643 5645 5647 5649 5650 5652 5654 5655 5656 5658 5659 5661 5662 5664 5665 5667 5668 5670 5671 5673 5674 5675 5676 5677 5677 5678 5679 5681 5683 5685 5687 5689 5690 5691 5693 5695 5697
Wind_Speed
14 14 14 15 15 14 14 13 13 13 12 12 12 12 12 11 10 11 11 11 10 10 9 9 8 9 8 8 8 8 8 8 7 7 7 6 6 6 5 5 4 4 3
16 15 15 16 16 16 15 15 14 14 14 13 13 13 13 12 12 12 11 11 10 10 10 10 10 9 9 9 9 9 9 9 8 8 8 7 7 7 6 6 5 5 4
17 17 17 16 17 16 16 16 15 15 15 14 14 14 14 14 13 13 12 12 11 10 11 11 11 10 11 10 10 10 9 9 9 9 9 8 8 8 7 7 6 6 5
18 18 18 18 18 17 17 17 17 17 16 16 15 15 14 14 14 14 14 13 13 12 12 11 11 11 11 12 11 11 11 10 10 9 9 9 9 9 9 8 8 7 7
20 20 20 19 19 19 19 19 19 18 18 18 17 17 16 15 15 15 15 15 15 14 14 13 12 12 12 12 12 12 12 12 11 11 11 11 11 10 10 9 9 8 8
21 21 21 21 21 21 21 21 20 20 20 19 19 19 18 18 17 16 16 16 17 16 16 16 15 14 14 14 14 14 14 13 13 13 13 13 12 12 12 11 11 10 10
22 22 22 22 22 22 22 22 21 21 21 21 21 21 20 19 18 18 18 18 18 18 18 17 17 17 16 16 16 16 16 16 16 16 16 15 15 14 14 13 13 13 12
24 23 23 24 23 23 23 23 22 22 22 22 22 22 21 21 20 20 19 19 19 19 19 19 19 19 19 19 19 18 18 18 18 18 18 18 18 17 16 16 15 15 14
25 25 25 25 25 24 24 24 24 24 24 24 24 23 23 23 22 22 21 21 21 21 21 21 21 20 20 20 20 20 20 20 20 19 19 20 20 19 19 18 18 18 17
27 27 27 26 26 26 26 25 25 26 25 25 25 25 25 24 24 24 23 23 23 23 23 22 22 22 22 22 22 22 22 22 22 22 21 21 22 22 21 21 20 20 19
29 29 29 29 29 28 28 28 27 27 27 27 27 27 27 27 26 26 26 25 25 25 25 25 24 24 24 24 24 24 24 24 24 24 24 24 24 24 24 23 23 22 22
32 31 31 31 31 31 31 30 30 30 30 30 29 29 29 29 28 28 28 28 27 27 27 27 27 27 26 26 26 27 26 26 26 26 26 26 26 26 26 26 25 25 24
33 33 33 33 33 33 33 33 33 32 32 32 32 31 31 31 30 30 30 30 29 29 29 29 29 29 28 28 28 29 28 28 28 28 28 28 28 28 28 28 27 27 27
35 35 35 35 35 35 35 35 35 35 35 34 34 34 33 33 33 32 32 32 32 31 31 31 31 31 31 30 30 30 30 30 29 29 29 29 29 30 30 29 29 28 28
37 37 37 37 37 37 37 37 37 37 37 37 37 36 36 36 35 35 35 34 33 33 33 33 32 32 32 32 32 31 32 32 31 31 31 31 31 31 31 32 31 30 30
38 38 39 39 39 39 39 39 39 39 39 40 39 39 38 38 38 37 37 37 36 35 34 34 34 34 34 34 33 33 33 33 33 33 33 33 33 33 33 33 34 33 32
40 40 40 40 41 41 41 41 41 41 41 41 41 41 41 40 40 39 39 39 38 37 36 36 36 36 36 36 35 35 35 35 35 35 35 35 35 35 35 35 35 36 36
41 41 41 41 42 42 42 42 42 42 42 42 42 42 42 41 41 40 40 40 40 40 39 39 38 38 37 37 38 37 37 37 37 37 38 37 37 37 37 37 37 37 37
43 42 42 42 43 43 43 43 43 43 43 43 43 43 43 42 42 42 42 42 42 42 42 42 41 40 40 40 40 39 40 40 39 40 39 40 39 39 39 39 39 39 39
44 44 44 44 44 44 45 45 44 45 45 45 45 45 45 44 44 44 44 44 44 44 44 44 44 43 42 42 42 42 42 42 42 42 41 41 41 41 41 41 41 40 40
45 46 46 46 46 46 46 46 46 46 46 47 47 46 46 46 46 46 46 46 46 45 45 45 45 45 44 44 44 44 44 44 44 44 43 43 43 43 43 43 43 42 41
46 46 47 47 47 47 47 47 47 47 47 48 48 48 48 48 49 49 49 49 48 48 47 47 47 46 46 46 46 45 45 46 46 45 46 46 46 46 45 45 44 44 44
46 46 47 47 48 48 48 48 48 48 48 47 48 48 49 50 50 51 51 50 50 51 50 49 49 48 48 48 48 47 47 46 46 47 47 47 48 49 48 48 48 47 46
47 47 48 49 49 49 49 49 49 49 49 48 48 49 50 50 51 51 51 51 51 51 51 51 51 50 50 50 50 49 49 49 48 48 48 49 49 50 51 51 50 50 50
47 48 49 49 50 50 50 50 50 51 51 51 51 51 51 52 52 53 53 53 52 52 52 51 51 51 51 51 51 51 51 52 52 51 51 51 51 52 52 52 52 52 52
47 48 49 49 50 50 51 51 51 52 52 52 52 51 52 53 53 54 54 54 54 54 53 53 53 53 52 52 53 53 53 53 53 53 54 53 53 53 54 54 54 54 54
Wind_Direction
239 238 236 235 235 236 235 234 234 236 238 236 237 235 238 237 236 234 233 236 237 234 231 230 232 230 227 225 221 218 216 215 210 206 207 204 203 200 197 199 196 200 199
241 241 239 238 237 237 237 236 235 236 238 239 239 236 238 238 238 239 236 237 237 235 233 233 234 234 232 231 227 225 224 221 218 214 212 210 209 207 206 209 213 216 218
241 240 240 240 238 238 238 238 236 237 238 241 241 238 237 237 238 239 237 239 238 238 240 239 238 237 236 235 232 231 230 227 225 222 220 219 218 218 218 219 222 226 228
241 242 242 242 240 239 238 238 238 238 239 240 241 238 237 237 238 239 239 242 241 242 245 246 245 243 241 238 236 235 233 231 230 229 228 228 226 225 227 229 230 234 236
242 243 243 243 242 241 240 240 240 240 240 241 242 241 240 239 239 241 243 244 245 245 247 249 249 246 244 242 240 240 238 236 234 234 235 235 233 232 232 234 236 239 241
243 242 242 242 241 242 242 242 242 242 243 242 243 243 243 243 243 243 245 247 249 249 248 249 249 247 247 245 244 244 243 242 241 240 239 239 238 238 238 239 241 243 245
245 242 243 243 242 242 242 242 242 243 244 244 244 244 245 245 245 245 248 250 252 251 251 250 249 248 248 247 246 246 246 246 245 244 243 242 241 242 242 244 245 246 247
246 246 245 244 244 244 244 244 244 244 245 246 245 245 245 246 247 247 249 251 253 253 253 252 251 250 249 249 248 248 249 249 248 247 245 244 245 245 245 247 247 248 250
246 247 247 246 246 245 245 244 245 246 246 247 247 247 247 246 247 249 250 251 253 254 254 254 253 252 251 250 249 250 250 250 250 250 249 247 247 246 247 248 249 250 252
248 248 249 248 248 247 246 246 246 247 247 248 248 248 249 250 250 250 252 253 253 254 255 255 254 253 252 251 251 251 251 251 251 251 250 250 248 247 247 247 249 250 252
249 249 249 249 248 248 248 248 248 248 249 249 250 251 252 252 253 253 253 254 254 254 255 254 254 253 253 253 253 253 252 253 252 252 252 252 251 249 248 248 249 251 252
249 249 249 250 250 250 249 250 250 250 251 251 252 253 254 254 255 255 255 255 255 255 255 255 255 254 254 254 254 254 253 254 254 254 253 253 252 250 250 249 249 250 252
250 250 249 250 251 251 252 252 252 252 252 252 252 253 255 255 256 256 256 256 256 256 257 256 255 255 255 255 256 255 254 254 254 255 254 253 252 251 250 251 251 250 250
251 251 251 251 251 252 253 253 254 253 253 253 253 253 254 256 256 256 256 256 256 256 257 257 256 255 256 256 256 256 255 254 254 254 255 254 253 252 251 251 251 252 252
252 252 251 251 251 252 253 253 254 254 254 255 255 255 255 255 255 255 255 256 256 255 256 257 257 257 256 256 257 257 256 255 254 254 254 255 255 254 253 252 252 252 252
252 252 252 252 252 252 253 254 254 254 255 256 256 256 255 256 255 255 256 256 255 255 256 257 257 257 256 256 256 256 256 255 254 254 254 255 255 256 255 253 253 253 253
252 252 252 252 252 253 253 253 254 255 255 255 256 256 255 255 255 255 255 254 255 255 256 256 257 257 257 257 256 256 256 256 256 255 255 255 255 256 256 255 254 254 254
253 253 253 253 253 252 253 254 254 255 255 255 255 255 255 255 254 254 255 255 255 255 255 256 257 257 258 258 257 256 257 257 256 256 255 255 256 256 257 256 255 255 256
253 252 252 252 252 252 252 253 254 255 255 254 254 254 254 254 255 254 254 254 255 255 255 256 256 257 257 258 257 257 257 257 256 256 256 256 256 257 257 258 257 256 257
253 252 252 252 252 252 252 253 253 253 254 254 254 254 254 254 255 255 254 255 255 256 256 256 256 257 258 258 258 258 257 257 257 256 257 257 257 258 258 258 258 257 257
253 252 252 252 253 253 253 253 253 253 253 254 254 254 254 254 254 255 255 256 256 256 256 256 257 257 258 258 258 259 258 258 257 257 257 257 258 258 258 258 258 258 258
253 253 253 253 253 254 253 253 253 253 254 254 254 254 254 254 254 254 255 255 255 256 256 257 257 258 258 258 259 259 258 258 257 257 257 258 258 258 258 258 258 258 259
253 253 253 253 253 253 254 254 253 254 254 255 255 255 254 254 255 255 255 256 257 256 256 257 257 258 259 259 260 260 259 257 257 257 257 258 258 258 258 258 259 258 258
253 253 253 253 253 253 254 254 254 254 254 255 256 256 256 255 255 256 256 257 258 258 257 257 258 258 259 260 260 260 259 259 258 258 257 258 258 258 258 258 258 259 259
254 254 253 254 254 254 254 254 254 254 254 254 255 256 256 256 256 256 257 257 258 258 258 257 258 258 259 260 260 260 260 260 260 260 259 258 258 257 258 258 257 258 258
255 254 254 254 254 254 254 254 254 254 254 254 255 257 257 257 257 257 257 257 257 258 258 257 258 258 260 261 261 261 261 261 261 262 261 259 259 258 257 257 257 257 257